Regional Weather Roundup
Issued by NWS State College, PA

Home | Current Version | Previous Version | Graphics & Text | Print | Product List | Glossary On
Versions: 1 2 3 4 5 6 7 8 9 10 11 12 13 14 15 16 17 18 19 20 21 22 23 24 25 26 27 28 29 30 31 32 33 34 35 36 37 38 39 40 41 42 43 44 45 46 47 48 49 50
000
ASUS41 KCTP 271903
RWRCTP

REGIONAL WEATHER ROUNDUP
NATIONAL WEATHER SERVICE STATE COLLEGE PA
200 PM EST MON FEB 27 2017

Note: "fair" indicates few or no clouds below 12,000 feet with no
significant weather and/or obstructions to visibility.

* = STATION THAT DOES NOT REPORT PRECIPITATION /E.G. RAIN...SNOW...ETC/
    THUNDER OR FOG.

PAZ002>004-007>009-013>016-020>023-029>032-272000-
WESTERN PENNSYLVANIA

CITY           SKY/WX    TMP DP  RH WIND       PRES   REMARKS
ERIE           SUNNY     46  23  40 W8        30.25F
MEADVILLE      CLOUDY    44  22  41 SW8       30.23F
FRANKLIN*      CLOUDY    45  21  39 S13G23    30.25F
NEW CASTLE     CLOUDY    47  26  44 S6        30.27F
BEAVER COUNTY  CLOUDY    46  27  46 SW8       30.27S
BUTLER*        CLOUDY    46  25  42 SW8G17    30.29S
PITTSBURGH INT DRIZZLE   44  34  67 SW15G22   30.28S
PITTSBURGH     CLOUDY    44  34  67 S13       30.30R
INDIANA*       CLOUDY    45  34  65 SW15      30.32R
LATROBE        LGT RAIN  41  37  87 SW9       30.32S
WASHINGTON CO* CLOUDY    39  36  87 SW5       30.33S
$$

PAZ004>006-010>012-017>019-024>028-033>037-041-042-045-046-049>053-272000-
CENTRAL PENNSYLVANIA

CITY           SKY/WX    TMP DP  RH WIND       PRES   REMARKS
BRADFORD       MOSUNNY   44  22  41 W9G18     30.22F
DUBOIS         CLOUDY    45  19  35 W13       30.24F
CLEARFIELD       N/A    N/A N/A N/A MISG      30.26F
JOHNSTOWN      LGT RAIN  39  34  82 SW9       30.27S
ALTOONA        LGT RAIN  45  32  60 W12       30.30R
STATE COLLEGE  NOT AVBL
WILLIAMSPORT   CLOUDY    46  19  34 VRB3      30.31F
SELINSGROVE    CLOUDY    46  24  42 S7        30.34F
FT INDIANTOWN  CLOUDY    45  29  53 CALM      30.35F
CAPITAL CITY   CLOUDY    52  27  38 SW14      30.36S
HARRISBURG     CLOUDY    51  29  42 SW13G20   30.35F
YORK           CLOUDY    50  29  44 W12G20    30.35F
$$

PAZ038>040-043-044-047-048-054-055-060>062-067>071-272000-
EASTERN PENNSYLVANIA

CITY           SKY/WX    TMP DP  RH WIND       PRES   REMARKS
SCRANTON       CLOUDY    48  20  32 SW8       30.30F
MOUNT POCONO   CLOUDY    42  18  37 SW14      30.29F
ALLENTOWN      CLOUDY    51  25  36 W13       30.35F
QUAKERTOWN*    CLOUDY    50  27  40 SW7       30.36F
READING        CLOUDY    52  32  46 S3        30.34F
LANCASTER      CLOUDY    53  25  33 SW10G20   30.35F
COATESVILLE    CLOUDY    52  27  37 VRB6      30.37S
POTTSTOWN      CLOUDY    52  25  35 SW10      30.37F
BLUE BELL      PTSUNNY   52  30  43 SW7       30.36F
DOYLESTOWN     CLOUDY    51  24  34 S8        30.35F
WILLOW GROVE   NOT AVBL
NORTH PHILA    PTSUNNY   55  26  32 SW13      30.39F
PHILADELPHIA   CLOUDY    54  27  35 SW14      30.39F
$$




USA.gov is the U.S. government's official web portal to all federal, state and local government web resources and services.